[[{"header":{"parameterUnit":"m.s-1","parameterCategory":1,"la1":30.2991,"la2":30.254,"lo1":-89.0895,"lo2":-89.0444,"dy":0.0017,"dx":0.0017,"nx":28,"ny":28,"refTime":"2025-04-18T03:00:00:Z","depth":0,"parameterNumber":2,"parameterNumberName":"U-component_of_WINDS"},"data":[0,0,0,0,0,0,0,0,0,0,0,0,0,0,0,0,0,0,0,0,0,0,0,0,0,0,0,0,0,0,0,0,0,0,0,0,0,0,0,0,0,0,0,0,0,0,0,0,0,0,0,0,0,0,0,0,0,0,-3.0911,-3.0911,0,-3.0986,-3.0987,-3.0988,-3.0985,-3.0984,-3.0983,-3.0982,-3.1058,-3.1061,-3.1064,0,0,0,0,0,0,0,0,0,0,0,0,0,-3.0764,-3.0766,-3.0911,-3.0911,-3.0912,-3.0986,-3.0987,-3.0988,-3.0985,-3.0984,-3.0983,-3.0982,-3.1057,-3.1061,-3.1064,0,0,0,0,0,0,0,0,0,0,0,0,0,-3.0832,-3.0767,-3.091,-3.092,-3.0922,-3.0986,-3.0987,-3.0988,-3.0986,-3.0984,-3.0983,-3.0981,-3.1056,-3.106,-3.1065,-3.1124,0,0,-3.1078,-3.108,0,0,0,0,0,0,0,0,-3.0828,-3.0838,-3.0918,-3.092,-3.0921,-3.0975,-3.0963,-3.1034,-3.0986,-3.0961,-3.0982,-3.098,-3.1031,-3.1038,-3.1055,-3.1127,-3.113,-3.1079,-3.1081,-3.1083,-3.1085,0,0,0,0,0,0,0,-3.0824,-3.0834,-3.094,-3.0919,-3.0921,-3.092,-3.0928,-3.0976,-3.1004,-3.0963,-3.0963,-3.0972,-3.1032,-3.1051,-3.1057,-3.1131,-3.1079,-3.1083,-3.1085,-3.1087,-3.1256,-3.1257,0,0,0,0,0,0,-3.0817,-3.083,-3.0938,-3.0943,-3.087,-3.0924,-3.0933,-3.0959,-3.1004,-3.1009,-3.0974,-3.0972,-3.1044,-3.1052,-3.106,-3.1131,-3.1083,-3.1088,-3.109,-3.1254,-3.1256,-3.1258,0,0,0,0,0,0,-3.0814,-3.0826,-3.0935,-3.0887,-3.09,-3.0929,-3.0958,-3.0961,-3.098,-3.1011,-3.1016,-3.0988,-3.1043,-3.1053,-3.1108,-3.1134,-3.109,-3.1094,-3.1252,-3.1255,-3.1257,-3.1275,0,0,0,0,0,0,-3.081,-3.0825,-3.0848,-3.0887,-3.0903,-3.0982,-3.0959,-3.0964,-3.0988,-3.0987,-3.1026,-3.1031,-3.1043,-3.1101,-3.1112,-3.1139,-3.1097,-3.125,-3.1253,-3.1256,-3.1272,-3.1278,-3.1283,0,0,0,0,0,-3.0804,-3.085,-3.0849,-3.0862,-3.0932,-3.0983,-3.0992,-3.1005,-3.099,-3.1013,-3.1034,-3.103,-3.113,-3.1107,-3.1119,-3.1148,-3.1248,-3.1252,-3.1256,-3.127,-3.1277,-3.1283,0,0,0,0,0,0,-3.0812,-3.0855,-3.0855,-3.0914,-3.0945,-3.0983,-3.1012,-3.1012,-3.1048,-3.1045,-3.1059,-3.1068,-3.1123,-3.1141,-3.1115,-3.1208,-3.1187,-3.1194,-3.1193,-3.12,-3.1206,-3.1199,-3.1101,0,0,0,0,0,-3.0821,-3.086,-3.0895,-3.0944,-3.096,-3.0983,-3.1006,-3.1014,-3.1046,-3.1059,-3.1083,-3.1115,-3.1153,-3.1178,-3.1215,-3.1276,-3.1284,-3.1302,-3.1307,-3.1312,-3.1317,-3.135,-3.1358,-3.1271,-3.1271,-3.1271,0,0,-3.0839,-3.0868,-3.0891,-3.0947,-3.0971,-3.1011,-3.0994,-3.1037,-3.1066,-3.1065,-3.1118,-3.1137,-3.1173,-3.1231,-3.1258,-3.1248,-3.1343,-3.1317,-3.132,-3.1323,-3.1355,-3.1363,-3.1371,-3.1274,-3.1273,-3.1273,0,0,-3.0893,-3.0918,-3.0962,-3.0988,-3.1026,-3.1041,-3.1052,-3.109,-3.1103,-3.1156,-3.1157,-3.1192,-3.1258,-3.1284,-3.1305,-3.137,-3.1368,-3.1382,-3.1409,-3.1442,-3.1449,-3.1455,-3.1477,-3.1485,-3.1387,-3.1387,-3.1387,0,-3.091,-3.097,-3.0984,-3.1027,-3.1051,-3.1054,-3.1098,-3.1122,-3.117,-3.1187,-3.1176,-3.126,-3.1284,-3.1348,-3.1364,-3.1381,-3.1394,-3.1376,-3.1447,-3.1453,-3.1459,-3.148,-3.1489,-3.1389,-3.1388,-3.1388,-3.1388,0,-3.0989,-3.1031,-3.1062,-3.1109,-3.1137,-3.118,-3.1201,-3.1228,-3.1233,-3.125,-3.1305,-3.1334,-3.1378,-3.1394,-3.1399,-3.1459,-3.1451,-3.1444,-3.1422,-3.1468,-3.1488,-3.1497,-3.1391,-3.139,-3.139,-3.1389,0,0,-3.1048,-3.1104,-3.1115,-3.1136,-3.1179,-3.1211,-3.1255,-3.1298,-3.132,-3.1354,-3.1391,-3.1447,-3.144,-3.1465,-3.1474,-3.1503,-3.1551,-3.1491,-3.1492,-3.15,-3.1618,-3.1623,-3.1632,-3.1551,-3.1553,-3.1554,-3.1615,0,-3.1105,-3.1183,-3.1197,-3.1265,-3.1303,-3.1307,-3.1345,-3.1375,-3.1393,-3.1428,-3.1447,-3.1486,-3.1475,-3.149,-3.1518,-3.1539,-3.1575,-3.1535,-3.1584,-3.1586,-3.1574,-3.1643,-3.1648,-3.1703,-3.1623,-3.1624,-3.1625,0,-3.1181,-3.1218,-3.1289,-3.1327,-3.1344,-3.1378,-3.1418,-3.1452,-3.1487,-3.1498,-3.1526,-3.1532,-3.1577,-3.1556,-3.1618,-3.1591,-3.1612,-3.1626,-3.1628,-3.1632,-3.1607,-3.1647,-3.1722,-3.1729,-3.1638,-3.1637,-3.1636,0,-3.1216,-3.1283,-3.1334,-3.1352,-3.1398,-3.1422,-3.1443,-3.1476,-3.1501,-3.1537,-3.1553,-3.1594,-3.1616,-3.1647,-3.1664,-3.1647,-3.1725,-3.1705,-3.1735,-3.1734,-3.175,-3.1748,-3.1827,-3.1766,-3.1766,-3.1765,-3.1765,0,-3.1277,-3.132,-3.135,-3.1381,-3.143,-3.1447,-3.1495,-3.1515,-3.1545,-3.158,-3.1586,-3.1619,-3.164,-3.1676,-3.1689,-3.1739,-3.1749,-3.1758,-3.1761,-3.1757,-3.1756,-3.177,-3.1766,-3.1768,-3.1767,-3.1767,-3.1766,0,-3.1323,-3.1345,-3.1401,-3.1441,-3.1452,-3.1486,-3.1519,-3.155,-3.1568,-3.1613,-3.1624,-3.1652,-3.1695,-3.1715,-3.1768,-3.1777,-3.1833,-3.1834,-3.1821,-3.1822,-3.185,-3.1847,-3.194,-3.1953,-3.1884,-3.1885,-3.1885,0,-3.136,-3.1394,-3.1437,-3.1462,-3.1483,-3.1522,-3.1547,-3.1566,-3.1593,-3.1635,-3.1661,-3.1704,-3.1739,-3.1807,-3.1832,-3.1873,-3.1874,-3.1904,-3.188,-3.1875,-3.1873,-3.1871,-3.1874,-3.1908,-3.1908,-3.1909,-3.1909,0,-3.1424,-3.1433,-3.147,-3.1511,-3.1542,-3.1575,-3.1608,-3.1627,-3.1651,-3.1681,-3.1725,-3.1752,-3.1807,-3.1849,-3.1892,-3.1913,-3.1915,-3.1917,-3.1926,-3.1921,-3.1912,-3.1917,-3.1832,-3.1914,-3.1914,-3.1913,-3.1913,-3.1913,-3.1466,-3.1496,-3.1531,-3.1572,-3.1599,-3.163,-3.166,-3.1683,-3.172,-3.1765,-3.1774,-3.1821,-3.1856,-3.1913,-3.1936,-3.1972,-3.1965,-3.1978,-3.1981,-3.1984,-3.1985,-3.1908,-3.198,-3.198,-3.198,-3.198,-3.198,0,-3.1529,-3.1552,-3.159,-3.1635,-3.1668,-3.1668,-3.1705,-3.1732,-3.1773,-3.1805,-3.184,-3.1891,-3.1932,-3.1961,-3.2004,-3.2027,-3.2029,-3.2038,-3.2035,-3.204,-3.1989,-3.1977,-3.2035,-3.2035,-3.2035,-3.2035,-3.2035,-3.2035,-3.1565,-3.1615,-3.1629,-3.1693,-3.1716,-3.1762,-3.1782,-3.1811,-3.1837,-3.1893,-3.1928,-3.1947,-3.1978,-3.2022,-3.2061,-3.2068,-3.2083,-3.2091,-3.2098,-3.205,-3.2044,-3.2038,-3.2026,-3.2094,-3.2094,-3.2146,-3.2146,-3.2147]},{"header":{"parameterUnit":"m.s-1","parameterCategory":1,"la1":30.2991,"la2":30.254,"lo1":-89.0895,"lo2":-89.0444,"dy":0.0017,"dx":0.0017,"nx":28,"ny":28,"refTime":"2025-04-18T03:00:00:Z","depth":0,"parameterNumber":3,"parameterNumberName":"V-component_of_WINDS"},"data":[0,0,0,0,0,0,0,0,0,0,0,0,0,0,0,0,0,0,0,0,0,0,0,0,0,0,0,0,0,0,0,0,0,0,0,0,0,0,0,0,0,0,0,0,0,0,0,0,0,0,0,0,0,0,0,0,0,0,5.1063,5.1063,0,5.1113,5.1113,5.1114,5.1074,5.1073,5.1071,5.1069,5.1116,5.1119,5.1121,0,0,0,0,0,0,0,0,0,0,0,0,0,5.0929,5.0932,5.1063,5.1063,5.1064,5.1113,5.1113,5.1114,5.1075,5.1073,5.107,5.1069,5.1115,5.1118,5.1122,0,0,0,0,0,0,0,0,0,0,0,0,0,5.0984,5.0933,5.1063,5.105,5.105,5.1113,5.1113,5.1114,5.1075,5.1072,5.107,5.1068,5.1114,5.1118,5.1122,5.1198,0,0,5.1135,5.1137,0,0,0,0,0,0,0,0,5.0981,5.0989,5.1051,5.1051,5.1051,5.1085,5.1083,5.1142,5.1076,5.1065,5.1069,5.1066,5.1107,5.1112,5.1127,5.12,5.1202,5.1135,5.1138,5.114,5.1141,0,0,0,0,0,0,0,5.0977,5.0986,5.1082,5.1052,5.1052,5.1041,5.1046,5.1094,5.1099,5.1066,5.1063,5.107,5.1106,5.1123,5.1127,5.1203,5.1135,5.1139,5.1141,5.1143,5.1342,5.1345,0,0,0,0,0,0,5.0975,5.0983,5.1081,5.1084,5.1009,5.1045,5.1051,5.1076,5.1099,5.11,5.1072,5.1068,5.1117,5.1122,5.1129,5.1219,5.114,5.1143,5.1146,5.1339,5.1343,5.1346,0,0,0,0,0,0,5.0972,5.0984,5.1079,5.1033,5.1044,5.105,5.1079,5.1079,5.1095,5.1104,5.1104,5.1088,5.1115,5.1123,5.1182,5.122,5.1145,5.1149,5.1336,5.134,5.1344,5.1401,0,0,0,0,0,0,5.0969,5.0983,5.1013,5.1034,5.1047,5.1132,5.1082,5.1081,5.1103,5.1098,5.1118,5.1119,5.1114,5.1176,5.1186,5.1225,5.1152,5.1333,5.1338,5.1343,5.1396,5.1407,5.1416,0,0,0,0,0,5.0964,5.1026,5.1015,5.1027,5.1084,5.1134,5.1141,5.1135,5.1106,5.1135,5.1141,5.1119,5.1215,5.1182,5.1193,5.1234,5.133,5.1336,5.1342,5.1391,5.1405,5.1416,0,0,0,0,0,0,5.1007,5.1028,5.1016,5.1087,5.111,5.1128,5.1164,5.1149,5.1179,5.1173,5.1162,5.1167,5.1229,5.1237,5.12,5.1309,5.1268,5.1276,5.1301,5.1314,5.1324,5.132,5.1156,0,0,0,0,0,5.1026,5.1066,5.1082,5.1143,5.1155,5.1158,5.1179,5.1173,5.1194,5.1203,5.1213,5.1234,5.1269,5.1292,5.1325,5.1398,5.1401,5.1431,5.1441,5.145,5.1457,5.1496,5.1509,5.1366,5.1366,5.1366,0,0,5.1063,5.1079,5.1105,5.1152,5.1168,5.1209,5.1166,5.121,5.124,5.1209,5.1266,5.1274,5.1297,5.1363,5.1393,5.1372,5.1498,5.1458,5.1464,5.1467,5.1504,5.1517,5.1529,5.137,5.137,5.1369,0,0,5.1151,5.1169,5.1221,5.1239,5.1266,5.1268,5.1281,5.1302,5.1306,5.1363,5.1341,5.1376,5.1436,5.1454,5.147,5.1567,5.1547,5.1578,5.1631,5.1669,5.168,5.169,5.1724,5.1736,5.1586,5.1586,5.1586,0,5.1194,5.1256,5.125,5.1297,5.1318,5.1294,5.1347,5.1364,5.1399,5.1414,5.1391,5.1467,5.148,5.155,5.1574,5.1589,5.1602,5.1575,5.1679,5.1689,5.1698,5.1731,5.1744,5.1589,5.1589,5.1589,5.1588,0,5.1306,5.1349,5.1389,5.1425,5.1451,5.15,5.1501,5.1528,5.1519,5.1523,5.1582,5.1597,5.1633,5.1649,5.1641,5.1718,5.1705,5.1681,5.1639,5.1716,5.1746,5.1758,5.1594,5.1593,5.1592,5.1591,0,0,5.1421,5.1456,5.147,5.1487,5.1515,5.1548,5.1596,5.1633,5.1655,5.1681,5.172,5.1773,5.1752,5.1771,5.1764,5.1798,5.1873,5.1769,5.177,5.1787,5.1959,5.1976,5.1991,5.1861,5.1863,5.1865,5.1957,0,5.1511,5.1597,5.1594,5.1674,5.1713,5.1692,5.1734,5.1756,5.1761,5.1795,5.18,5.1838,5.1807,5.1818,5.1851,5.1857,5.1907,5.1851,5.1896,5.1898,5.189,5.2007,5.2024,5.211,5.1969,5.1971,5.1972,0,5.1626,5.1658,5.1742,5.1765,5.1781,5.182,5.1853,5.1886,5.191,5.1911,5.1934,5.1922,5.197,5.1928,5.1994,5.1955,5.1974,5.198,5.1983,5.1986,5.1939,5.2011,5.2137,5.215,5.1991,5.1989,5.1988,0,5.1701,5.1764,5.1823,5.1838,5.1867,5.1894,5.1907,5.1928,5.1951,5.198,5.1994,5.2028,5.2046,5.2072,5.207,5.204,5.2136,5.2094,5.2138,5.2138,5.2158,5.2156,5.2287,5.2172,5.2172,5.2171,5.2171,0,5.18,5.1852,5.1857,5.1893,5.1951,5.1947,5.2004,5.2013,5.2033,5.207,5.2053,5.2088,5.2083,5.2117,5.2115,5.217,5.2178,5.218,5.2179,5.2181,5.2181,5.2192,5.2185,5.2175,5.2174,5.2173,5.2173,0,5.1893,5.1899,5.1961,5.1984,5.1991,5.2032,5.2051,5.2085,5.209,5.2137,5.2147,5.2155,5.2194,5.2195,5.224,5.2239,5.2305,5.2297,5.2297,5.2295,5.2339,5.2334,5.2481,5.2499,5.2373,5.2374,5.2375,0,5.1956,5.1995,5.2024,5.2048,5.2063,5.2102,5.2126,5.2124,5.2148,5.2179,5.2209,5.2248,5.2278,5.2343,5.2351,5.2385,5.2378,5.2427,5.2382,5.2384,5.2377,5.2375,5.2378,5.2435,5.2436,5.2437,5.2438,0,5.2066,5.2067,5.2102,5.2139,5.2169,5.2197,5.2223,5.2244,5.2244,5.2273,5.2315,5.2339,5.2386,5.2424,5.2458,5.2469,5.2454,5.2453,5.2464,5.2466,5.2465,5.2465,5.232,5.2449,5.2448,5.2447,5.2446,5.2446,5.2144,5.2179,5.2205,5.2245,5.2265,5.229,5.2323,5.2334,5.2369,5.2408,5.2404,5.245,5.2473,5.2517,5.2532,5.2567,5.255,5.2567,5.2571,5.2575,5.258,5.246,5.2573,5.2573,5.2573,5.2572,5.2572,0,5.2253,5.2269,5.2306,5.2345,5.2376,5.2362,5.239,5.2417,5.2458,5.2482,5.2513,5.2561,5.2598,5.2611,5.2647,5.2672,5.2666,5.2682,5.2679,5.2682,5.2593,5.2579,5.2686,5.2686,5.2686,5.2686,5.2686,5.2686,5.2313,5.2371,5.2376,5.2443,5.2458,5.2505,5.2522,5.2545,5.2564,5.2619,5.2651,5.2659,5.2678,5.2716,5.2749,5.2752,5.2765,5.2784,5.2783,5.27,5.2688,5.2677,5.2664,5.2787,5.2787,5.2869,5.287,5.287]}]]